CGNBR EGHQ-EGHH

Flight info

Callsign CGNBR
Flight time 1h 6m
Altitude 2500
Route EGHQ EGHD EGHH
Aircraft C82R/L-V/N

Departure

Time 2026-05-05 17:59
Airport Cornwall Airport Newquay (EGHQ)

Arrival

Time 2026-05-05 19:05
Airport Bournemouth Airport (EGHH)
Time Latitude Longitude Altitude Speed Heading
2026-05-05 17:35 50.44433 -4.99778 340 ft 0 kts 135°
2026-05-05 17:51 50.44426 -4.99775 341 ft 9 kts 176°
2026-05-05 17:51 50.44357 -4.99764 344 ft 13 kts 114°
2026-05-05 17:51 50.44266 -4.99489 353 ft 24 kts 123°
2026-05-05 17:52 50.44202 -4.99484 352 ft 2 kts 175°
2026-05-05 17:52 50.44195 -4.99483 350 ft 0 kts 181°
2026-05-05 17:53 50.44182 -4.99486 348 ft 7 kts 189°
2026-05-05 17:53 50.44166 -4.99488 345 ft 0 kts 181°
2026-05-05 17:54 50.44164 -4.99488 345 ft 0 kts 182°
2026-05-05 17:54 50.44162 -4.99488 344 ft 0 kts 182°
2026-05-05 17:55 50.44150 -4.99488 344 ft 5 kts 178°
2026-05-05 17:55 50.44064 -4.99564 342 ft 31 kts 266°
2026-05-05 17:55 50.44224 -4.99974 335 ft 68 kts 308°
2026-05-05 17:55 50.44553 -5.00751 417 ft 97 kts 302°
2026-05-05 17:56 50.45067 -5.01580 448 ft 119 kts 340°
2026-05-05 17:56 50.45937 -5.01597 552 ft 131 kts
2026-05-05 17:56 50.46695 -5.00815 624 ft 138 kts 54°
2026-05-05 17:56 50.46782 -4.99349 705 ft 135 kts 93°
2026-05-05 17:57 50.46645 -4.97929 804 ft 129 kts 92°
2026-05-05 17:57 50.46509 -4.96583 895 ft 117 kts 91°
2026-05-05 17:57 50.46402 -4.95388 940 ft 110 kts 89°
2026-05-05 17:57 50.46302 -4.94015 680 ft 137 kts 93°
2026-05-05 17:58 50.46229 -4.92539 747 ft 134 kts 91°
2026-05-05 17:58 50.46140 -4.91096 804 ft 131 kts 91°
2026-05-05 17:58 50.46040 -4.89663 860 ft 134 kts 91°
2026-05-05 17:58 50.45927 -4.88234 912 ft 132 kts 90°
2026-05-05 17:59 50.45796 -4.86795 965 ft 133 kts 91°
2026-05-05 17:59 50.45590 -4.85636 997 ft 141 kts 114°
2026-05-05 17:59 50.45428 -4.85316 995 ft 146 kts 129°
2026-05-05 17:59 50.45196 -4.85022 1001 ft 149 kts 141°
2026-05-05 18:00 50.44311 -4.84164 1053 ft 149 kts 144°
2026-05-05 18:00 50.43439 -4.83303 1101 ft 145 kts 144°
2026-05-05 18:00 50.42626 -4.82493 1145 ft 133 kts 141°
2026-05-05 18:00 50.41880 -4.81695 1186 ft 127 kts 142°
2026-05-05 18:01 50.41161 -4.80917 1238 ft 125 kts 141°
2026-05-05 18:01 50.40453 -4.80129 1284 ft 124 kts 141°
2026-05-05 18:01 50.39748 -4.79339 1335 ft 125 kts 141°
2026-05-05 18:01 50.39036 -4.78548 1387 ft 126 kts 142°
2026-05-05 18:02 50.38324 -4.77743 1438 ft 126 kts 141°
2026-05-05 18:02 50.37607 -4.76946 1486 ft 126 kts 141°
2026-05-05 18:02 50.36887 -4.76149 1537 ft 127 kts 141°
2026-05-05 18:02 50.36464 -4.75053 1527 ft 115 kts 85°
2026-05-05 18:03 50.36494 -4.73966 1576 ft 112 kts 80°
2026-05-05 18:03 50.36513 -4.72838 1627 ft 111 kts 80°
2026-05-05 18:03 50.36529 -4.71652 1675 ft 107 kts 79°
2026-05-05 18:03 50.36544 -4.70499 1728 ft 106 kts 81°
2026-05-05 18:04 50.36558 -4.69341 1773 ft 106 kts 80°
2026-05-05 18:04 50.36550 -4.68199 1813 ft 105 kts 81°
2026-05-05 18:04 50.36551 -4.67040 1859 ft 108 kts 81°
2026-05-05 18:04 50.36552 -4.65820 1918 ft 115 kts 81°
2026-05-05 18:05 50.36574 -4.64539 1991 ft 119 kts 80°
2026-05-05 18:05 50.36595 -4.63225 2011 ft 124 kts 86°
2026-05-05 18:05 50.36519 -4.61867 2014 ft 131 kts 88°
2026-05-05 18:05 50.36430 -4.60435 2003 ft 136 kts 88°
2026-05-05 18:06 50.36318 -4.59052 2006 ft 138 kts 88°
2026-05-05 18:06 50.36249 -4.58217 2000 ft 140 kts 89°
2026-05-05 18:06 50.36096 -4.56192 2001 ft 142 kts 88°
2026-05-05 18:06 50.35993 -4.54663 2003 ft 139 kts 88°
2026-05-05 18:07 50.35922 -4.53151 1997 ft 138 kts 86°
2026-05-05 18:07 50.35832 -4.51672 1998 ft 136 kts 87°
2026-05-05 18:07 50.35746 -4.50336 1999 ft 137 kts 87°
2026-05-05 18:07 50.35648 -4.48870 2002 ft 138 kts 86°
2026-05-05 18:08 50.35558 -4.47374 1997 ft 136 kts 86°
2026-05-05 18:08 50.35487 -4.45892 2000 ft 139 kts 86°
2026-05-05 18:08 50.35472 -4.44381 1993 ft 138 kts 82°
2026-05-05 18:08 50.35466 -4.42904 1986 ft 134 kts 83°
2026-05-05 18:09 50.35445 -4.41457 1983 ft 132 kts 82°
2026-05-05 18:09 50.35405 -4.40018 1981 ft 132 kts 83°
2026-05-05 18:09 50.35372 -4.38620 1981 ft 132 kts 83°
2026-05-05 18:09 50.35340 -4.37182 1979 ft 132 kts 83°
2026-05-05 18:10 50.35315 -4.35746 1980 ft 132 kts 82°
2026-05-05 18:10 50.35290 -4.34308 1980 ft 132 kts 82°
2026-05-05 18:10 50.35259 -4.32870 1980 ft 132 kts 83°
2026-05-05 18:10 50.35233 -4.31437 1980 ft 131 kts 82°
2026-05-05 18:11 50.35204 -4.30005 1983 ft 132 kts 83°
2026-05-05 18:11 50.35182 -4.28571 1982 ft 132 kts 82°
2026-05-05 18:11 50.35163 -4.27123 1981 ft 133 kts 82°
2026-05-05 18:11 50.35141 -4.25988 1987 ft 133 kts 82°
2026-05-05 18:12 50.35124 -4.24566 1984 ft 130 kts 82°
2026-05-05 18:12 50.35088 -4.23179 1971 ft 123 kts 80°
2026-05-05 18:12 50.35199 -4.21896 1964 ft 119 kts 72°
2026-05-05 18:12 50.35346 -4.20598 1937 ft 122 kts 69°
2026-05-05 18:13 50.35554 -4.19298 1908 ft 124 kts 67°
2026-05-05 18:13 50.35753 -4.17981 1889 ft 124 kts 67°
2026-05-05 18:13 50.35953 -4.16646 1859 ft 127 kts 68°
2026-05-05 18:13 50.36153 -4.15326 1842 ft 125 kts 69°
2026-05-05 18:14 50.36364 -4.14017 1820 ft 123 kts 67°
2026-05-05 18:14 50.36569 -4.12758 1795 ft 125 kts 68°
2026-05-05 18:14 50.36783 -4.11459 1767 ft 124 kts 67°
2026-05-05 18:14 50.36993 -4.10159 1742 ft 122 kts 68°
2026-05-05 18:15 50.37197 -4.08863 1722 ft 122 kts 68°
2026-05-05 18:15 50.37322 -4.07538 1664 ft 122 kts 69°
2026-05-05 18:15 50.37648 -4.06338 1623 ft 121 kts 63°
2026-05-05 18:15 50.37903 -4.05097 1581 ft 117 kts 54°
2026-05-05 18:16 50.38268 -4.03950 1563 ft 122 kts 68°
2026-05-05 18:16 50.38341 -4.02894 1570 ft 122 kts 77°
2026-05-05 18:16 50.38400 -4.01561 1573 ft 123 kts 78°
2026-05-05 18:16 50.38441 -4.00310 1575 ft 122 kts 79°
2026-05-05 18:17 50.38478 -3.98994 1563 ft 120 kts 79°
2026-05-05 18:17 50.38516 -3.97695 1564 ft 119 kts 79°
2026-05-05 18:17 50.38550 -3.96406 1563 ft 118 kts 79°
2026-05-05 18:17 50.38583 -3.95137 1568 ft 115 kts 79°
2026-05-05 18:18 50.38616 -3.93899 1567 ft 113 kts 78°
2026-05-05 18:18 50.38695 -3.92692 1563 ft 108 kts 66°
2026-05-05 18:18 50.38927 -3.91570 1566 ft 109 kts 62°
2026-05-05 18:18 50.39156 -3.90433 1563 ft 109 kts 63°
2026-05-05 18:19 50.39380 -3.89306 1568 ft 108 kts 63°
2026-05-05 18:19 50.39608 -3.88166 1577 ft 112 kts 65°
2026-05-05 18:19 50.39837 -3.87014 1569 ft 111 kts 64°
2026-05-05 18:19 50.40067 -3.85852 1567 ft 112 kts 63°
2026-05-05 18:20 50.40296 -3.84695 1570 ft 111 kts 64°
2026-05-05 18:20 50.40529 -3.83522 1575 ft 115 kts 64°
2026-05-05 18:20 50.40770 -3.82315 1576 ft 117 kts 64°
2026-05-05 18:20 50.41011 -3.81093 1576 ft 117 kts 65°
2026-05-05 18:21 50.41199 -3.80133 1571 ft 114 kts 65°
2026-05-05 18:21 50.41362 -3.79305 1573 ft 112 kts 64°
2026-05-05 18:21 50.41577 -3.78221 1572 ft 112 kts 63°
2026-05-05 18:21 50.41809 -3.77055 1566 ft 112 kts 64°
2026-05-05 18:22 50.42037 -3.75894 1568 ft 110 kts 65°
2026-05-05 18:22 50.42262 -3.74746 1573 ft 110 kts 65°
2026-05-05 18:22 50.42493 -3.73581 1576 ft 114 kts 63°
2026-05-05 18:22 50.42730 -3.72378 1577 ft 119 kts 64°
2026-05-05 18:23 50.42978 -3.71123 1577 ft 121 kts 65°
2026-05-05 18:23 50.43227 -3.69859 1574 ft 122 kts 65°
2026-05-05 18:23 50.43474 -3.68600 1569 ft 120 kts 67°
2026-05-05 18:23 50.43716 -3.67363 1571 ft 117 kts 67°
2026-05-05 18:24 50.43953 -3.66158 1565 ft 116 kts 66°
2026-05-05 18:24 50.44187 -3.64964 1563 ft 113 kts 66°
2026-05-05 18:24 50.44482 -3.63853 1546 ft 107 kts 43°
2026-05-05 18:24 50.45114 -3.63269 1558 ft 107 kts 26°
2026-05-05 18:25 50.45767 -3.62696 1559 ft 107 kts 26°
2026-05-05 18:25 50.46193 -3.62315 1563 ft 106 kts 26°
2026-05-05 18:25 50.47059 -3.61611 1559 ft 105 kts 21°
2026-05-05 18:25 50.47732 -3.61200 1583 ft 102 kts 17°
2026-05-05 18:26 50.48407 -3.60836 1595 ft 104 kts 18°
2026-05-05 18:26 50.49098 -3.60439 1605 ft 114 kts 18°
2026-05-05 18:26 50.49906 -3.59973 1611 ft 132 kts 18°
2026-05-05 18:26 50.50804 -3.59476 1610 ft 141 kts 18°
2026-05-05 18:27 50.51745 -3.58944 1608 ft 147 kts 18°
2026-05-05 18:27 50.52713 -3.58401 1608 ft 149 kts 18°
2026-05-05 18:27 50.53694 -3.57856 1608 ft 150 kts 17°
2026-05-05 18:27 50.54658 -3.57312 1608 ft 151 kts 18°
2026-05-05 18:28 50.56173 -3.56519 1609 ft 151 kts 15°
2026-05-05 18:28 50.57185 -3.56075 1609 ft 152 kts 15°
2026-05-05 18:28 50.58193 -3.55634 1607 ft 154 kts 14°
2026-05-05 18:29 50.58401 -3.55541 1604 ft 153 kts 14°
2026-05-05 18:29 50.58740 -3.55387 1602 ft 152 kts 14°
2026-05-05 18:30 50.59746 -3.54928 1604 ft 150 kts 15°
2026-05-05 18:30 50.60086 -3.54778 1606 ft 152 kts 14°
2026-05-05 18:30 50.61071 -3.54341 1605 ft 155 kts 14°
2026-05-05 18:30 50.62108 -3.53864 1598 ft 155 kts 15°
2026-05-05 18:31 50.63135 -3.53391 1592 ft 151 kts 15°
2026-05-05 18:31 50.64121 -3.52815 1598 ft 152 kts 21°
2026-05-05 18:31 50.65092 -3.52111 1597 ft 153 kts 23°
2026-05-05 18:31 50.66058 -3.51404 1591 ft 152 kts 23°
2026-05-05 18:32 50.67011 -3.50711 1600 ft 151 kts 22°
2026-05-05 18:32 50.67743 -3.50164 1600 ft 153 kts 23°
2026-05-05 18:32 50.68705 -3.49459 1602 ft 151 kts 22°
2026-05-05 18:32 50.69661 -3.48753 1600 ft 152 kts 23°
2026-05-05 18:33 50.70610 -3.48055 1593 ft 151 kts 23°
2026-05-05 18:33 50.71571 -3.47359 1595 ft 150 kts 22°
2026-05-05 18:33 50.72271 -3.46606 1215 ft 138 kts 40°
2026-05-05 18:33 50.72769 -3.45422 568 ft 143 kts 61°
2026-05-05 18:34 50.73038 -3.44006 259 ft 119 kts 75°
2026-05-05 18:34 50.73197 -3.42892 110 ft 84 kts 75°
2026-05-05 18:34 50.73306 -3.42255 90 ft 28 kts 78°
2026-05-05 18:34 50.73312 -3.42192 86 ft 7 kts 80°
2026-05-05 18:35 50.73359 -3.41821 83 ft 61 kts 78°
2026-05-05 18:35 50.73479 -3.40953 156 ft 94 kts 75°
2026-05-05 18:35 50.73648 -3.39791 201 ft 125 kts 76°
2026-05-05 18:35 50.73850 -3.38369 284 ft 137 kts 76°
2026-05-05 18:36 50.74069 -3.36859 389 ft 145 kts 76°
2026-05-05 18:36 50.74290 -3.35295 494 ft 149 kts 76°
2026-05-05 18:36 50.74511 -3.33757 590 ft 150 kts 76°
2026-05-05 18:36 50.74717 -3.32336 684 ft 150 kts 75°
2026-05-05 18:37 50.74925 -3.30737 873 ft 146 kts 76°
2026-05-05 18:37 50.74959 -3.29140 1075 ft 146 kts 88°
2026-05-05 18:37 50.74870 -3.27571 1275 ft 145 kts 92°
2026-05-05 18:37 50.74776 -3.26063 1480 ft 144 kts 91°
2026-05-05 18:38 50.74696 -3.25024 1617 ft 144 kts 92°
2026-05-05 18:38 50.74529 -3.22927 1898 ft 145 kts 92°
2026-05-05 18:38 50.74449 -3.21884 1993 ft 149 kts 92°
2026-05-05 18:38 50.74336 -3.20208 1996 ft 156 kts 92°
2026-05-05 18:39 50.74229 -3.18486 1999 ft 159 kts 91°
2026-05-05 18:39 50.74111 -3.16730 2007 ft 163 kts 92°
2026-05-05 18:39 50.73977 -3.14937 2008 ft 165 kts 92°
2026-05-05 18:39 50.73844 -3.13170 1999 ft 150 kts 91°
2026-05-05 18:40 50.73717 -3.11657 1987 ft 129 kts 92°
2026-05-05 18:40 50.73632 -3.10709 1989 ft 119 kts 91°
2026-05-05 18:40 50.73516 -3.09513 1991 ft 118 kts 91°
2026-05-05 18:40 50.73395 -3.08245 1990 ft 124 kts 92°
2026-05-05 18:41 50.73272 -3.06917 1994 ft 125 kts 92°
2026-05-05 18:41 50.73146 -3.05609 1990 ft 116 kts 91°
2026-05-05 18:41 50.73014 -3.04394 1991 ft 109 kts 92°
2026-05-05 18:41 50.72890 -3.03226 1992 ft 111 kts 92°
2026-05-05 18:42 50.72768 -3.01960 2001 ft 121 kts 92°
2026-05-05 18:42 50.72646 -3.00624 2008 ft 124 kts 92°
2026-05-05 18:42 50.72519 -2.99271 2007 ft 125 kts 92°
2026-05-05 18:42 50.72323 -2.97922 1997 ft 132 kts 108°
2026-05-05 18:43 50.71876 -2.96623 1994 ft 136 kts 112°
2026-05-05 18:43 50.71431 -2.95296 1998 ft 137 kts 112°
2026-05-05 18:43 50.71103 -2.94328 2003 ft 139 kts 112°
2026-05-05 18:43 50.70652 -2.92979 2000 ft 138 kts 112°
2026-05-05 18:44 50.70207 -2.91657 1998 ft 134 kts 112°
2026-05-05 18:44 50.69778 -2.90370 1995 ft 131 kts 112°
2026-05-05 18:44 50.69358 -2.89111 1993 ft 132 kts 112°
2026-05-05 18:44 50.68926 -2.87836 1989 ft 131 kts 112°
2026-05-05 18:45 50.68597 -2.86760 1989 ft 129 kts 108°
2026-05-05 18:45 50.68369 -2.85955 1991 ft 129 kts 108°
2026-05-05 18:45 50.67996 -2.84661 1989 ft 130 kts 108°
2026-05-05 18:45 50.67626 -2.83364 1989 ft 130 kts 108°
2026-05-05 18:46 50.67258 -2.82067 1987 ft 130 kts 108°
2026-05-05 18:46 50.66890 -2.80765 1987 ft 130 kts 108°
2026-05-05 18:46 50.66524 -2.79459 1993 ft 131 kts 108°
2026-05-05 18:46 50.66145 -2.78133 1994 ft 134 kts 108°
2026-05-05 18:47 50.65758 -2.76784 1993 ft 136 kts 108°
2026-05-05 18:47 50.65365 -2.75436 1995 ft 135 kts 108°
2026-05-05 18:47 50.64979 -2.74109 1995 ft 134 kts 108°
2026-05-05 18:47 50.64589 -2.72776 1994 ft 134 kts 108°
2026-05-05 18:48 50.64206 -2.71456 1985 ft 127 kts 108°
2026-05-05 18:48 50.63855 -2.70259 1977 ft 114 kts 108°
2026-05-05 18:48 50.63545 -2.69222 1974 ft 107 kts 108°
2026-05-05 18:48 50.63238 -2.68193 1975 ft 104 kts 108°
2026-05-05 18:49 50.62932 -2.67187 1993 ft 102 kts 108°
2026-05-05 18:49 50.62631 -2.66196 1994 ft 101 kts 108°
2026-05-05 18:49 50.62328 -2.65195 1994 ft 101 kts 108°
2026-05-05 18:49 50.62022 -2.64202 1993 ft 101 kts 108°
2026-05-05 18:50 50.61710 -2.63219 1995 ft 100 kts 108°
2026-05-05 18:50 50.61402 -2.62258 1993 ft 100 kts 108°
2026-05-05 18:50 50.61091 -2.61286 1990 ft 98 kts 108°
2026-05-05 18:50 50.60782 -2.60340 1992 ft 96 kts 108°
2026-05-05 18:51 50.60481 -2.59436 1994 ft 93 kts 108°
2026-05-05 18:51 50.60180 -2.58548 1995 ft 91 kts 108°
2026-05-05 18:51 50.59883 -2.57677 1992 ft 90 kts 108°
2026-05-05 18:51 50.59588 -2.56822 1994 ft 88 kts 108°
2026-05-05 18:52 50.59289 -2.55942 2009 ft 95 kts 108°
2026-05-05 18:52 50.58972 -2.54968 2014 ft 105 kts 108°
2026-05-05 18:52 50.58671 -2.53882 2009 ft 121 kts 96°
2026-05-05 18:52 50.58754 -2.52632 2018 ft 126 kts 73°
2026-05-05 18:53 50.58901 -2.51248 2010 ft 134 kts 73°
2026-05-05 18:53 50.59054 -2.49780 2012 ft 138 kts 74°
2026-05-05 18:53 50.59220 -2.48261 1955 ft 144 kts 74°
2026-05-05 18:53 50.59393 -2.46678 1845 ft 148 kts 73°
2026-05-05 18:54 50.59565 -2.45066 1733 ft 150 kts 75°
2026-05-05 18:54 50.59751 -2.43462 1706 ft 147 kts 74°
2026-05-05 18:54 50.59930 -2.41884 1709 ft 146 kts 73°
2026-05-05 18:54 50.60097 -2.40315 1688 ft 144 kts 74°
2026-05-05 18:55 50.60244 -2.38961 1687 ft 144 kts 74°
2026-05-05 18:55 50.60412 -2.37433 1684 ft 143 kts 74°
2026-05-05 18:55 50.60581 -2.35891 1684 ft 143 kts 74°
2026-05-05 18:55 50.60751 -2.34346 1683 ft 143 kts 74°
2026-05-05 18:56 50.60922 -2.32801 1682 ft 143 kts 74°
2026-05-05 18:56 50.61095 -2.31253 1691 ft 144 kts 74°
2026-05-05 18:56 50.61271 -2.29698 1691 ft 144 kts 74°
2026-05-05 18:56 50.61432 -2.28263 1691 ft 145 kts 74°
2026-05-05 18:57 50.61604 -2.26738 1692 ft 143 kts 73°
2026-05-05 18:57 50.61805 -2.25311 1687 ft 138 kts 71°
2026-05-05 18:57 50.62003 -2.24065 1677 ft 120 kts 69°
2026-05-05 18:57 50.62191 -2.22866 1674 ft 106 kts 70°
2026-05-05 18:58 50.62364 -2.21718 1681 ft 117 kts 69°
2026-05-05 18:58 50.62570 -2.20396 1692 ft 129 kts 69°
2026-05-05 18:58 50.62791 -2.19011 1688 ft 138 kts 69°
2026-05-05 18:58 50.63035 -2.17544 1690 ft 143 kts 69°
2026-05-05 18:59 50.63290 -2.16021 1697 ft 144 kts 69°
2026-05-05 18:59 50.63534 -2.14539 1696 ft 145 kts 70°
2026-05-05 18:59 50.63773 -2.13002 1687 ft 146 kts 70°
2026-05-05 18:59 50.64022 -2.11446 1680 ft 145 kts 71°
2026-05-05 19:00 50.64267 -2.09927 1677 ft 142 kts 70°
2026-05-05 19:00 50.64501 -2.08431 1678 ft 140 kts 70°
2026-05-05 19:00 50.64728 -2.06943 1679 ft 139 kts 70°
2026-05-05 19:00 50.64967 -2.05472 1678 ft 138 kts 68°
2026-05-05 19:01 50.65245 -2.04043 1674 ft 137 kts 64°
2026-05-05 19:01 50.65611 -2.02662 1671 ft 136 kts 61°
2026-05-05 19:01 50.65976 -2.01290 1670 ft 135 kts 61°
2026-05-05 19:01 50.66338 -1.99913 1676 ft 137 kts 61°
2026-05-05 19:02 50.66717 -1.98540 1678 ft 137 kts 59°
2026-05-05 19:02 50.67133 -1.97209 1676 ft 134 kts 56°
2026-05-05 19:02 50.67577 -1.95921 1678 ft 134 kts 56°
2026-05-05 19:02 50.68032 -1.94635 1683 ft 136 kts 55°
2026-05-05 19:03 50.68516 -1.93615 1660 ft 131 kts 32°
2026-05-05 19:03 50.69376 -1.93296 1597 ft 131 kts
2026-05-05 19:03 50.70298 -1.93194 1552 ft 135 kts
2026-05-05 19:03 50.70995 -1.93120 1509 ft 136 kts
2026-05-05 19:04 50.71931 -1.93014 1490 ft 133 kts
2026-05-05 19:04 50.72735 -1.92913 1467 ft 100 kts
2026-05-05 19:04 50.73336 -1.92817 1463 ft 76 kts
2026-05-05 19:04 50.73806 -1.92738 1369 ft 64 kts
2026-05-05 19:05 50.74233 -1.92646 1307 ft 59 kts
2026-05-05 19:05 50.74624 -1.92582 1242 ft 57 kts
2026-05-05 19:05 50.75016 -1.92503 1138 ft 56 kts
2026-05-05 19:05 50.75355 -1.92431 1108 ft 49 kts
2026-05-05 19:06 50.75687 -1.92364 1121 ft 52 kts
2026-05-05 19:06 50.76070 -1.92292 1135 ft 59 kts
2026-05-05 19:06 50.76491 -1.92230 1338 ft 58 kts
2026-05-05 19:06 50.76887 -1.92104 1494 ft 64 kts 32°
2026-05-05 19:07 50.76981 -1.91323 1198 ft 96 kts 86°
2026-05-05 19:07 50.77015 -1.90188 941 ft 106 kts 75°
2026-05-05 19:07 50.77162 -1.89113 753 ft 95 kts 69°
2026-05-05 19:07 50.77330 -1.88132 515 ft 95 kts 68°
2026-05-05 19:08 50.77530 -1.87110 287 ft 96 kts 71°
2026-05-05 19:08 50.77683 -1.86242 109 ft 70 kts 74°
2026-05-05 19:08 50.77791 -1.85593 60 ft 55 kts 73°
2026-05-05 19:08 50.77889 -1.85005 50 ft 52 kts 74°
2026-05-05 19:09 50.77978 -1.84479 39 ft 45 kts 73°
2026-05-05 19:09 50.78054 -1.84047 38 ft 35 kts 75°
2026-05-05 19:09 50.78127 -1.83928 40 ft 13 kts 347°
2026-05-05 19:09 50.78215 -1.83968 41 ft 15 kts 342°
2026-05-05 19:10 50.78306 -1.84014 41 ft 13 kts 342°
2026-05-05 19:10 50.78386 -1.84058 41 ft 11 kts 343°
2026-05-05 19:10 50.78471 -1.84095 41 ft 17 kts 348°
2026-05-05 19:10 50.78585 -1.84128 41 ft 17 kts 350°
2026-05-05 19:11 50.78693 -1.84163 41 ft 18 kts 350°
2026-05-05 19:11 50.78804 -1.84257 41 ft 18 kts 306°
2026-05-05 19:11 50.78795 -1.84428 41 ft 15 kts 255°
2026-05-05 19:11 50.78772 -1.84584 41 ft 14 kts 263°
2026-05-05 19:12 50.78759 -1.84686 41 ft 7 kts 224°
2026-05-05 19:12 50.78743 -1.84656 41 ft 5 kts 131°
2026-05-05 19:12 50.78727 -1.84653 41 ft 0 kts 173°
2026-05-05 19:12 50.78731 -1.84619 41 ft 4 kts 17°
2026-05-05 19:13 50.78735 -1.84620 41 ft 0 kts 315°